STARLINK-34354, 64314

Orbit data source: Space-Track

STARLINK-34354, 64314 is a payload satellite owned by SpaceX/Seattle (US) in LEO that was launched on Sun, 08 Jun 2025 UTC via an FALCON 9 launch vehicle from the Air Force Western Test Range (AFWTR). Payload-class satellites include a variety of spacecraft equipped with specific instruments for various scientific and technological missions. These include communications satellites like Starlink; space stations such as the ISS; scientific satellites like the Hubble; Earth observation satellites from companies like Planet Labs, Umbra, and HawkEye 360; GPS; miniature CubeSats for education and research; and military/defense satellites.

Loading next visibility...
Identifier
64314, 2025-123Z
Orbit
LEO
Country
Flag of USUS
Related business
Manufacturer
SpaceX/Seattle
Mission
Operational Commercial Communications
Bus & Motor
STARLINK V2MO, Unknown motor
Mass
575 kg wet, ~530 kg dry
Launch date (UTC)
2025-06-08 (10 months ago)
Launch vehicle
FALCON 9
Launch site
Air Force Western Test Range (AFWTR)
Object type
Payload
Rocket body
Debris
Shape & HBR
Box + 2 Pan, 17.7 m
Radar Cross Section
36.964 m², Large (>1 m²)

Expand to show TLE details & history
Last TLE update: 16 hours ago

TLE from 16 hours ago
0 STARLINK-34354
1 64314U 25123Z   26093.55166227  .00005601  00000-0  47677-3 0  9991
2 64314  70.0019 131.7342 0003731 262.9019  97.1715 14.98332618 45342
Epoch: 2026-04-03T13:14Z
TLE epoch observation values (Epoch: 2026-04-03T13:14:23.620Z)
Latitude
-0.00009°
Longitude
101.25159°
Altitude
574.797 km
Speed
7.574 km/s
True Right ascension
08h 46m 56s
True Declination
0° 00' 00"
Sunlit
Object was in full shadow at epoch
Visualization orbit readout
Latitude
Unknown
Longitude
Unknown
Altitude
Unknown
Speed
Unknown
Apparent Right ascension
Unknown
Apparent Declination
Unknown
Sunlit
N/A
Visualization observer readout
Local Sidereal Time
11:23:10
Azimuth
Unknown
Elevation
Unknown
Doppler factor
Unknown
Orbital elements
Apogee altitude
572.588 km
Perigee altitude
567.403 km
Semi-major axis
6,948.133 km
Eccentricity
0.00037
Inclination
70.0019°
RAAN
131.7342°
Arg. of periapsis
262.9019°
True anomaly
97.21392°
Mean anomaly
97.1715°
Eccentric anomaly
97.19271°
Mean motion
3.74749 °/min
Orbital period
96.06 mins
BSTAR
0.00047677
Loading maneuver chart data...
Computing Atmospheric mass density...
Loading historical data...
Loading historical data...
Loading historical data...
Loading historical data...
Loading historical data...
Loading historical data...
Loading historical data...

Documentation

Showing up to 5 results
|